Location: Boursonne
(49.2024°N, 3.0468°E)
Time: 21:24:17
(UTC+00:00)

HJ-1C - Pass Details

Date: 03 March 2021
Orbit: 428 x 440 km, 97.1° (Epoch: 14 April)

Event Time Altitude Azimuth Distance (km) Brightness Sun altitude
Rises 18:32:26 0° 162° (SSE) 2,416 6.9 -10.3°
Reaches altitude 10° 18:34:27 10° 161° (SSE) 1,550 5.9 -10.6°
Maximum altitude 18:37:46 77° 76° (ENE) 456 3.2 -11.2°
Drops below altitude 10° 18:41:06 10° 350° (N) 1,557 6.3 -11.7°
Sets 18:43:07 0° 349° (N) 2,428 7.3 -12.0°
